Franklin, NC

12:52 PM EDT on August 18, 2017 (GMT -0400)
Franklin

Weather History for K1A5 - July, 2014

Change the Weather History Date:

Monday, July 21, 2014

  Actual Average (KTOC) Record (KTOC)
Temperature  
Mean Temperature 70 °F -  
Max Temperature 80 °F 90 °F 97 °F (2017)
Min Temperature 61 °F 67 °F 70 °F (2016)
Cooling Degree Days 6    
Growing Degree Days 20 (Base 50)    
Moisture  
Dew Point 64 °F    
Average Humidity 85    
Maximum Humidity 100    
Minimum Humidity 51    
Precipitation  
Precipitation 0.51 in - - ()
Sea Level Pressure  
Sea Level Pressure 30.16 in    
Wind  
Wind Speed 0 mph (SE)    
Max Wind Speed 6 mph    
Max Gust Speed -    
Visibility 8 miles    
Events Fog , Rain    
Averages and records for this station are not official NWS values.
T = Trace of Precipitation, MM = Missing Value Source: NWS Daily Summary

Daily Weather History Graph

Daily Weather History Graph

Search for Another Location

Airport or City:

Trip Planner

Search our weather history database for the weather conditions in past years. The results will help you decide how hot, cold, wet, or windy it might be!

Date:

Astronomy

Jul. 21, 2014 Rise Set
Actual Time 6:34 AM EDT 8:45 PM EDT
Civil Twilight 6:05 AM EDT 9:13 PM EDT
Nautical Twilight 5:30 AM EDT 9:48 PM EDT
Astronomical Twilight 4:52 AM EDT 10:26 PM EDT
Moon 2:21 AM EDT (7/21) 4:28 PM EDT (7/21)
Length of Visible Light 15h 08m
Length of Day
14h 10m
Waning Crescent, 24% of the Moon is Illuminated
Jul 21
Waning Crescent
Jul 26
New
Aug 3
First Quarter
Aug 10
Full
Aug 17
Last Quarter

Hourly Weather History & Observations

Time (EDT) Temp. Heat Index Dew Point Humidity Pressure Visibility Wind Dir Wind Speed Gust Speed Precip Events Conditions
12:15 AM 63.5 °F - 63.5 °F 100% 30.16 in 5.0 mi Calm Calm - N/A   Scattered Clouds
12:35 AM 63.5 °F - 63.5 °F 100% 30.16 in 5.0 mi Calm Calm - N/A   Mostly Cloudy
12:55 AM 63.7 °F - 63.7 °F 100% 30.16 in 4.0 mi Calm Calm - N/A   Overcast
1:15 AM 63.5 °F - 63.5 °F 100% 30.15 in 4.0 mi Calm Calm - N/A   Mostly Cloudy
1:35 AM 63.1 °F - 63.1 °F 100% 30.15 in 4.0 mi Calm Calm - N/A   Scattered Clouds
1:55 AM 63.0 °F - 63.0 °F 100% 30.14 in 5.0 mi Calm Calm - N/A   Mostly Cloudy
2:15 AM 62.6 °F - 62.6 °F 100% 30.13 in 5.0 mi Calm Calm - N/A   Overcast
2:35 AM 62.1 °F - 62.1 °F 100% 30.13 in 3.0 mi Calm Calm - N/A   Scattered Clouds
2:55 AM 61.5 °F - 61.5 °F 100% 30.12 in 3.0 mi Calm Calm - N/A   Mostly Cloudy
3:15 AM 61.5 °F - 61.5 °F 100% 30.12 in 1.5 mi Calm Calm - N/A   Overcast
3:35 AM 61.7 °F - 61.7 °F 100% 30.12 in 0.5 mi Calm Calm - N/A Fog Fog
3:55 AM 61.9 °F - 61.9 °F 100% 30.12 in 0.5 mi Calm Calm - N/A Fog Fog
4:15 AM 61.7 °F - 61.7 °F 100% 30.13 in 0.2 mi Calm Calm - N/A Fog Fog
4:35 AM 61.9 °F - 61.9 °F 100% 30.13 in 0.5 mi Calm Calm - N/A Fog Fog
4:55 AM 61.7 °F - 61.5 °F 99% 30.13 in 5.0 mi Calm Calm - N/A   Overcast
5:20 AM 61.7 °F - 61.7 °F 100% 30.14 in 5.0 mi Calm Calm - N/A   Overcast
5:35 AM 61.9 °F - 61.7 °F 99% 30.14 in 5.0 mi Calm Calm - N/A   Overcast
5:55 AM 62.2 °F - 61.9 °F 99% 30.15 in 0.8 mi Calm Calm - 0.41 in Rain Heavy Rain
6:15 AM 62.2 °F - 61.7 °F 98% 30.16 in 5.0 mi Calm Calm - 0.05 in Rain Light Rain
6:35 AM 62.1 °F - 61.7 °F 99% 30.16 in 5.0 mi Calm Calm - 0.06 in Rain Light Rain
6:55 AM 62.1 °F - 61.7 °F 99% 30.16 in 5.0 mi Calm Calm - 0.07 in Rain Rain
7:15 AM 62.2 °F - 61.7 °F 98% 30.16 in 5.0 mi Calm Calm - 0.01 in Rain Rain
7:35 AM 62.2 °F - 61.7 °F 98% 30.17 in 5.0 mi Calm Calm - 0.01 in   Light Drizzle
7:55 AM 62.6 °F - 62.1 °F 98% 30.18 in 5.0 mi Calm Calm - 0.01 in   Overcast
8:15 AM 62.8 °F - 62.2 °F 98% 30.18 in 10.0 mi Calm Calm - N/A   Overcast
8:35 AM 63.1 °F - 62.6 °F 98% 30.18 in 10.0 mi Calm Calm - N/A   Overcast
8:55 AM 63.1 °F - 62.6 °F 98% 30.20 in 5.0 mi Calm Calm - N/A Rain Rain
9:35 AM 64.4 °F - 63.9 °F 98% 30.20 in 5.0 mi Calm Calm - 0.02 in   Overcast
9:55 AM 64.9 °F - 64.9 °F 100% 30.20 in 10.0 mi Calm Calm - 0.02 in   Overcast
10:15 AM 65.7 °F - 65.7 °F 100% 30.21 in 10.0 mi Calm Calm - N/A   Overcast
10:35 AM 67.6 °F - 67.6 °F 100% 30.20 in 10.0 mi Calm Calm - N/A   Overcast
10:55 AM 69.4 °F - 65.7 °F 88% 30.18 in 10.0 mi Calm Calm - N/A   Mostly Cloudy
11:20 AM 70.3 °F - 65.8 °F 86% 30.18 in 10.0 mi ENE 3.5 mph - N/A   Overcast
11:35 AM 72.1 °F - 64.6 °F 77% 30.18 in 10.0 mi Calm Calm - N/A   Scattered Clouds
11:55 AM 72.1 °F - 64.4 °F 77% 30.18 in 10.0 mi Calm Calm - N/A   Scattered Clouds
12:15 PM 73.4 °F - 63.9 °F 72% 30.19 in 10.0 mi Calm Calm - N/A   Overcast
12:35 PM 74.8 °F - 64.8 °F 71% 30.18 in 10.0 mi Calm Calm - N/A   Mostly Cloudy
12:55 PM 76.5 °F - 65.7 °F 69% 30.18 in 10.0 mi SSE 3.5 mph - N/A   Mostly Cloudy
1:15 PM 77.2 °F - 62.8 °F 61% 30.18 in 10.0 mi Calm Calm - N/A   Scattered Clouds
1:35 PM 78.1 °F - 64.2 °F 62% 30.17 in 10.0 mi SSE 4.6 mph - N/A   Scattered Clouds
1:55 PM 79.9 °F - 64.8 °F 60% 30.17 in 10.0 mi SSE 4.6 mph - N/A   Scattered Clouds
2:15 PM 79.7 °F - 62.6 °F 56% 30.17 in 10.0 mi ESE 5.8 mph - N/A   Clear
2:35 PM 79.2 °F - 63.0 °F 57% 30.16 in 10.0 mi SSW 3.5 mph - N/A   Scattered Clouds
2:55 PM 80.8 °F 81.6 °F 61.3 °F 51% 30.16 in 10.0 mi SE 4.6 mph - N/A   Clear
3:15 PM 79.0 °F - 62.4 °F 57% 30.16 in 10.0 mi Calm Calm - N/A   Mostly Cloudy
3:35 PM 79.0 °F - 63.0 °F 58% 30.16 in 10.0 mi ESE 3.5 mph - N/A   Overcast
3:55 PM 79.9 °F - 63.0 °F 56% 30.14 in 10.0 mi East 4.6 mph - N/A   Overcast
4:15 PM 80.4 °F 81.7 °F 63.1 °F 55% 30.14 in 10.0 mi East 3.5 mph - N/A   Scattered Clouds
4:35 PM 80.1 °F 81.5 °F 63.1 °F 56% 30.13 in 10.0 mi Calm Calm - N/A   Clear
4:55 PM 80.6 °F 82.4 °F 64.9 °F 59% 30.13 in 10.0 mi Calm Calm - N/A   Clear
5:15 PM 78.8 °F - 65.1 °F 63% 30.13 in 10.0 mi Calm Calm - N/A   Scattered Clouds
5:35 PM 78.3 °F - 65.3 °F 64% 30.14 in 10.0 mi Calm Calm - N/A   Clear
5:55 PM 77.9 °F - 65.1 °F 65% 30.14 in 10.0 mi Calm Calm - N/A   Clear
6:15 PM 77.7 °F - 65.5 °F 66% 30.13 in 10.0 mi Calm Calm - N/A   Scattered Clouds
6:35 PM 76.8 °F - 68.0 °F 74% 30.13 in 10.0 mi Calm Calm - N/A   Clear
6:55 PM 76.1 °F - 70.0 °F 81% 30.14 in 10.0 mi Calm Calm - N/A   Clear
7:15 PM 75.7 °F - 69.4 °F 81% 30.15 in 10.0 mi Calm Calm - N/A   Clear
7:35 PM 75.2 °F - 65.3 °F 71% 30.15 in 10.0 mi SE 3.5 mph - N/A   Clear
7:55 PM 74.7 °F - 65.7 °F 73% 30.16 in 10.0 mi Calm Calm - N/A   Scattered Clouds
8:15 PM 74.3 °F - 65.8 °F 75% 30.16 in 10.0 mi SE 3.5 mph - N/A   Scattered Clouds
8:35 PM 73.6 °F - 66.0 °F 77% 30.17 in 10.0 mi Calm Calm - N/A   Mostly Cloudy
9:00 PM 72.5 °F - 66.0 °F 80% 30.18 in 10.0 mi Calm Calm - N/A   Overcast
9:20 PM 71.6 °F - 66.0 °F 82% 30.18 in 10.0 mi Calm Calm - N/A   Scattered Clouds
9:40 PM 70.7 °F - 65.5 °F 83% 30.20 in 10.0 mi Calm Calm - N/A   Scattered Clouds
9:55 PM 68.7 °F - 68.2 °F 98% 30.20 in 10.0 mi Calm Calm - N/A   Scattered Clouds
10:15 PM 67.1 °F - 67.1 °F 100% 30.21 in 10.0 mi Calm Calm - N/A   Clear
10:35 PM 66.0 °F - 66.0 °F 100% 30.20 in 7.0 mi Calm Calm - N/A   Clear
10:55 PM 65.3 °F - 65.3 °F 100% 30.20 in 7.0 mi Calm Calm - N/A   Clear
11:15 PM 64.8 °F - 64.8 °F 100% 30.20 in 7.0 mi Calm Calm - N/A   Clear
11:35 PM 64.6 °F - 64.6 °F 100% 30.20 in 7.0 mi Calm Calm - N/A   Clear
11:55 PM 64.4 °F - 64.4 °F 100% 30.20 in 5.0 mi Calm Calm - N/A   Scattered Clouds